Regional Weather Roundup
Issued by NWS

Home | Current Version | Previous Version | Graphics & Text | Print | Product List | Glossary On
Versions: 1 2 3 4 5 6 7 8 9 10 11 12 13 14 15 16 17 18 19 20 21 22 23 24 25 26 27 28 29 30 31 32 33 34 35 36 37 38 39 40 41 42 43 44 45 46 47 48 49 50
000
ASUS43 KIND 301959
RWRIN

WEATHER ROUNDUP FOR INDIANA
NATIONAL WEATHER SERVICE INDIANAPOLIS IN
400 PM EDT TUE AUG 30 2016

NOTE: "FAIR" INDICATES FEW OR NO CLOUDS BELOW 12,000 FEET WITH NO
SIGNIFICANT WEATHER AND/OR OBSTRUCTIONS TO VISIBILITY.

* - STATION DOES NOT REPORT WEATHER SUCH AS PRECIPITATION OR FOG.

+ - STATION NOT QUALITY CONTROLLED BY THE NATIONAL WEATHER SERVICE.
    USE DATA WITH CAUTION...ESPECIALLY DEWPOINT AND RELATIVE
    HUMIDITY OBSERVATIONS.

INZ001>003-010>013-019-020-302100-
NORTHWEST INDIANA

CITY           SKY/WX    TMP DP  RH WIND       PRES   REMARKS
GARY /AIRPORT/ PTSUNNY   84  72  65 W8        30.08F
KNOX *+        CLOUDY    81  52  36 W3        30.08F
MONTICELLO +   PTSUNNY   86  69  57 W8        30.06F

$$

LMZ046-743>745-302100-
SOUTHERN LAKE MICHIGAN

STATION/POSITION TIME  TEMP    WIND        PRES    WAVE
                       AIR SEA DIR/SP/G            HT
                 (UTC) (F)     (DEG/KT/KT) (MB)    (FT)
BURNS HARBOR     1908   76     310/  5/  7 1019.3F
MICHIGAN CITY    1900   77     220/  6/  6   N/A
5NW MICH CITY    1900   75 71  250/  4/  6   N/A     0

$$

INZ004-005-014>016-021>024-302100-
NORTH CENTRAL INDIANA

CITY           SKY/WX    TMP DP  RH WIND       PRES   REMARKS
ELKHART        SUNNY    N/A N/A N/A CALM        N/A
GOSHEN         CLOUDY    82  71  69 CALM      30.08F
SOUTH BEND     CLOUDY    80  73  79 S9        30.09F

$$

INZ006>009-017-018-025>027-302100-
NORTHEAST INDIANA

CITY           SKY/WX    TMP DP  RH WIND       PRES   REMARKS
ANGOLA *+      SUNNY     82  72  69 CALM      30.09F
FORT WAYNE     PTSUNNY   84  69  60 VRB6      30.08F

$$

INZ028-029-035-036-043>045-051>053-302100-
WEST CENTRAL INDIANA

CITY           SKY/WX    TMP DP  RH WIND       PRES   REMARKS
CRAWFORDSVL +  CLOUDY    83  73  69 CALM      30.08F
LAFAYETTE      PTSUNNY   85  73  67 CALM      30.06F
TERRE HAUTE    SUNNY     90  69  50 SW3       30.06F

$$

INZ030>032-037>040-046>048-054>057-064-065-302100-
CENTRAL INDIANA

CITY           SKY/WX    TMP DP  RH WIND       PRES   REMARKS
INDIANAPOLIS   PTSUNNY   88  69  53 SE8       30.07F
-EAGLE CREEK   MOSUNNY   89  68  49 MISG      30.07F
KOKOMO *+      PTSUNNY   84  73  70 SE5       30.07F
MT COMFORT *+  MOSUNNY   86  72  62 SE3       30.09F
SHELBYVILLE    PTSUNNY   87  69  54 VRB3      30.08F

$$

INZ033-034-041-042-049-050-058-059-302100-
EAST CENTRAL INDIANA

CITY           SKY/WX    TMP DP  RH WIND       PRES   REMARKS
MUNCIE         CLOUDY    88  73  61 NE7       30.09F HX  95

$$

INZ060-061-067>069-081>083-085>088-302100-
SOUTHWEST INDIANA

CITY           SKY/WX    TMP DP  RH WIND       PRES   REMARKS
EVANSVILLE     PTSUNNY   93  70  46 N3        30.06F HX  99
HUNTINGBURG *+ SUNNY     91  70  49 NE6       30.07F HX  97

$$

INZ062-063-066-070>080-084-089>092-302100-
SOUTH CENTRAL AND SOUTHEAST INDIANA

CITY           SKY/WX    TMP DP  RH WIND       PRES   REMARKS
BLOOMINGTON    MOSUNNY   87  71  58 CALM      30.08F
MADISON *+     SUNNY     90  63  40 CALM      30.10F

$$




USA.gov is the U.S. government's official web portal to all federal, state and local government web resources and services.